Hourly Data Report for October 06, 2003

SHERBROOKE A
QUEBEC

45°26'00.000" N
71°41'00.000" W
241.40 m
7028124
71610
YSC

Download Data

Hourly Data (October 2003)
Hourly Data Report for October 6, 2003
TIME
LST
Temp Definition
°C
Dew Point Definition
°C
Rel Hum Definition
%
Precip. Amount Definition
mm

Wind Dir Definition
10's deg

Wind Spd Definition
km/h
Visibility Definition
km
Stn Press Definition
kPa
Hmdx Definition


Wind Chill Definition


Weather Definition


00:00 3.6 1.0 83   24 11 15.0 98.48      
01:00 2.7 0.8 87   22 4 15.0 98.53      
02:00 4.1 2.0 86   23 7 15.0 98.56      
03:00 4.6 2.3 85   24 11 15.0 98.60      
04:00 4.7 1.9 82   25 7 15.0 98.65      
05:00 4.7 1.6 80   27 17 15.0 98.72      
06:00 4.4 1.5 81   26 13 15.0 98.76      
07:00 4.4 1.6 82   26 15 24.1 98.82     Cloudy
08:00 4.9 2.0 81   24 13 24.1 98.89     Cloudy
09:00 5.1 1.8 79   25 11 24.1 98.93     Cloudy
10:00 5.5 1.4 75   29 13 24.1 98.92     Cloudy
11:00 5.5 1.2 74   27 11 24.1 98.93     Cloudy
12:00 5.6 1.3 74   26 17 24.1 98.92     Cloudy
13:00 5.7 1.7 75   27 19 24.1 98.91     Cloudy
14:00 5.7 1.8 76   25 13 24.1 98.91     Cloudy
15:00 5.5 1.5 75   27 13 24.1 98.92     Cloudy
16:00 6.1 1.3 71   23 11 24.1 98.91     Mostly Cloudy
17:00 4.7 1.0 77   24 7 15.0 98.93      
18:00 4.4 1.2 80   20 6 15.0 98.96      
19:00 4.0 0.9 80   21 6 15.0 98.99      
20:00 3.6 0.9 82   24 7 15.0 99.03      
21:00 3.3 1.1 85   22 4 15.0 99.05      
22:00 3.0 1.4 89     0 15.0 99.05      
23:00 3.0 1.1 87   20 6 15.0 99.05      

Notes on Data Quality.

Legend

  • E = Estimated
  • M = Missing
  • NA = Not Available*
  • [empty] = Indicates an unobserved value
Date modified: